Madera Ranchos
DateTemperatureDew Point
09/03 - 11:45 AM78.0°56.6°
09/03 - 11:30 AM77.3°56.0°
09/03 - 11:15 AM76.8°56.0°
09/03 - 11:00 AM76.3°56.7°
09/03 - 10:45 AM75.4°56.8°
09/03 - 10:30 AM74.0°55.8°
09/03 - 10:15 AM73.5°56.0°
09/03 - 10:00 AM72.2°56.2°
09/03 - 09:45 AM70.7°55.7°
09/03 - 09:30 AM69.7°55.4°
09/03 - 09:15 AM68.3°55.2°
09/03 - 09:00 AM67.6°55.4°
09/03 - 08:45 AM66.4°55.6°
09/03 - 08:30 AM64.9°55.6°
09/03 - 08:15 AM63.6°55.5°
09/03 - 08:00 AM62.1°55.4°
09/03 - 07:45 AM60.5°55.6°
09/03 - 07:30 AM59.0°55.5°
09/03 - 07:15 AM57.5°54.8°
09/03 - 07:00 AM56.3°54.3°
09/03 - 06:45 AM55.6°54.1°
09/03 - 06:30 AM55.1°53.6°
09/03 - 06:15 AM55.0°53.5°
09/03 - 06:00 AM55.1°53.5°
09/03 - 05:45 AM55.2°53.5°
09/03 - 05:30 AM55.2°53.1°
09/03 - 05:15 AM55.9°53.3°
09/03 - 05:00 AM56.7°53.8°
09/03 - 04:45 AM56.8°53.8°
09/03 - 04:30 AM56.8°53.6°
09/03 - 04:15 AM57.3°53.7°
09/03 - 04:00 AM57.5°53.5°
09/03 - 03:45 AM57.7°53.5°
09/03 - 03:30 AM57.7°53.4°
09/03 - 03:15 AM58.1°53.3°
09/03 - 03:00 AM58.5°53.4°
09/03 - 02:45 AM58.8°53.4°
09/03 - 02:30 AM59.3°53.4°
09/03 - 02:15 AM59.6°53.6°
09/03 - 02:00 AM59.9°53.8°
09/03 - 01:45 AM60.3°53.9°
09/03 - 01:30 AM60.7°53.8°
09/03 - 01:15 AM61.2°53.8°
09/03 - 01:00 AM62.2°54.3°
09/03 - 12:45 AM62.7°54.4°
09/03 - 12:30 AM62.9°54.5°
09/03 - 12:15 AM63.3°54.8°
09/03 - 12:00 AM63.7°55.0°
09/02 - 11:45 PM64.0°54.8°
09/02 - 11:30 PM64.4°54.5°
09/02 - 11:15 PM65.1°54.2°
09/02 - 11:00 PM65.8°53.8°
09/02 - 10:45 PM66.3°53.2°
09/02 - 10:30 PM66.5°52.5°
09/02 - 10:15 PM66.2°52.2°
09/02 - 10:00 PM66.0°52.6°
09/02 - 09:45 PM66.6°52.8°
09/02 - 09:30 PM67.8°53.3°
09/02 - 09:15 PM67.9°54.1°
09/02 - 09:00 PM69.0°54.3°
09/02 - 08:45 PM70.2°55.0°
09/02 - 08:30 PM70.9°55.5°
09/02 - 08:15 PM71.5°55.7°
09/02 - 08:00 PM72.3°55.7°
09/02 - 07:45 PM71.5°55.4°
09/02 - 07:30 PM70.1°56.7°
09/02 - 07:15 PM73.6°56.2°
09/02 - 07:00 PM75.9°54.1°
09/02 - 06:45 PM78.2°53.6°
09/02 - 06:30 PM79.5°53.3°
09/02 - 06:15 PM80.8°52.6°
09/02 - 06:00 PM81.7°52.4°
09/02 - 05:45 PM82.0°52.3°
09/02 - 05:30 PM82.3°52.5°
09/02 - 05:15 PM82.3°53.0°
09/02 - 05:00 PM82.8°52.4°
09/02 - 04:45 PM83.1°52.3°
09/02 - 04:30 PM84.0°52.3°
09/02 - 04:15 PM84.3°52.7°
09/02 - 04:00 PM84.4°52.6°
09/02 - 03:45 PM84.4°52.0°
09/02 - 03:30 PM84.5°51.2°
09/02 - 03:15 PM84.0°51.1°
09/02 - 03:00 PM83.7°51.3°
09/02 - 02:45 PM83.2°51.7°
09/02 - 02:30 PM83.4°51.8°
09/02 - 02:15 PM83.1°51.5°
09/02 - 02:00 PM82.2°51.0°
09/02 - 01:45 PM82.2°51.8°
09/02 - 01:30 PM81.0°52.1°
09/02 - 01:15 PM81.1°51.8°
09/02 - 01:00 PM80.4°52.8°
09/02 - 12:45 PM79.8°52.2°
09/02 - 12:30 PM79.5°52.8°
09/02 - 12:15 PM79.9°53.3°
09/02 - 12:00 PM77.7°52.6°
09/02 - 11:45 AM78.7°53.3°
09/02 - 11:30 AM77.0°52.9°
09/02 - 11:15 AM76.2°52.8°
09/02 - 11:00 AM74.6°52.4°
09/02 - 10:45 AM74.3°52.2°
09/02 - 10:30 AM73.2°51.6°
09/02 - 10:15 AM72.3°52.1°
09/02 - 10:00 AM71.8°52.4°
09/02 - 09:45 AM70.7°52.7°
09/02 - 09:30 AM69.7°53.3°
09/02 - 09:15 AM68.6°53.6°
09/02 - 09:00 AM67.2°53.6°
09/02 - 08:45 AM66.6°53.5°
09/02 - 08:30 AM65.2°53.9°
09/02 - 08:15 AM63.5°53.9°
09/02 - 08:00 AM61.6°53.6°
09/02 - 07:45 AM59.3°53.4°
09/02 - 07:30 AM56.2°53.2°
09/02 - 07:15 AM53.6°52.3°
09/02 - 07:00 AM51.8°51.1°
09/02 - 06:45 AM50.7°49.8°
09/02 - 06:30 AM49.5°48.5°
09/02 - 06:15 AM49.3°48.2°
09/02 - 06:00 AM49.4°48.1°
09/02 - 05:45 AM49.1°47.4°
09/02 - 05:30 AM49.5°47.5°
09/02 - 05:15 AM50.7°48.6°
09/02 - 05:00 AM51.5°49.2°
09/02 - 04:45 AM52.1°49.4°
09/02 - 04:30 AM52.7°49.7°
09/02 - 04:15 AM53.5°50.1°
09/02 - 04:00 AM53.8°50.3°
09/02 - 03:45 AM53.8°50.2°
09/02 - 03:30 AM54.2°50.3°
09/02 - 03:15 AM54.3°50.3°
09/02 - 03:00 AM54.2°50.2°
09/02 - 02:45 AM54.5°50.1°
09/02 - 02:30 AM54.9°50.2°
09/02 - 02:15 AM55.1°50.4°
09/02 - 02:00 AM55.4°50.6°
09/02 - 01:45 AM55.9°50.7°
09/02 - 01:30 AM57.0°50.7°
09/02 - 01:15 AM57.7°50.5°
09/02 - 01:00 AM58.2°50.4°
09/02 - 12:45 AM58.8°50.2°
09/02 - 12:30 AM59.5°50.4°
09/02 - 12:15 AM60.1°50.5°
09/02 - 12:00 AM60.5°50.6°
09/01 - 11:45 PM61.0°50.6°
09/01 - 11:30 PM61.3°50.9°
09/01 - 11:15 PM61.8°51.0°
09/01 - 11:00 PM62.4°51.1°
09/01 - 10:45 PM62.9°51.3°
09/01 - 10:30 PM63.3°51.4°
09/01 - 10:15 PM63.8°51.7°
09/01 - 10:00 PM64.2°51.8°
09/01 - 09:45 PM64.8°51.8°
09/01 - 09:30 PM65.6°51.8°
09/01 - 09:15 PM66.2°51.2°
09/01 - 09:00 PM66.6°49.7°
09/01 - 08:45 PM67.2°49.1°
09/01 - 08:30 PM67.7°49.9°
09/01 - 08:15 PM68.4°50.7°
09/01 - 08:00 PM69.5°50.9°
09/01 - 07:45 PM70.6°50.6°
09/01 - 07:30 PM71.5°50.2°
09/01 - 07:15 PM71.0°50.1°
09/01 - 07:00 PM72.7°50.6°
09/01 - 06:45 PM74.9°50.1°
09/01 - 06:30 PM76.2°49.8°
09/01 - 06:15 PM76.8°49.8°
09/01 - 06:00 PM76.7°50.1°
09/01 - 05:45 PM77.9°50.7°
09/01 - 05:30 PM79.6°51.1°
09/01 - 05:15 PM80.1°51.3°
09/01 - 05:00 PM79.8°51.3°
09/01 - 04:45 PM80.5°51.2°
09/01 - 04:30 PM82.0°51.2°
09/01 - 04:15 PM83.5°50.8°
09/01 - 04:00 PM83.0°49.0°
09/01 - 03:45 PM82.4°49.6°
09/01 - 03:30 PM81.9°50.1°
09/01 - 03:15 PM82.5°50.9°
09/01 - 03:00 PM81.8°51.2°
09/01 - 02:45 PM80.5°51.0°
09/01 - 02:30 PM80.2°51.0°
09/01 - 02:15 PM80.2°51.2°
09/01 - 02:00 PM80.6°51.5°
09/01 - 01:45 PM79.0°51.3°
09/01 - 01:30 PM78.6°51.7°
09/01 - 01:15 PM77.5°51.5°
09/01 - 01:00 PM77.1°51.6°